RH
13 11 6 4 3 2 2 2 2 2 2 2 2 3 3 4 5 5 5 5 5 5 6 6 7 7 8 8 7 6 4 4 4
13 10 6 4 3 2 2 2 2 3 3 3 4 6 6 6 6 6 5 4 4 5 6 7 8 8 9 8 9 9 8 8 6
14 10 6 4 3 2 2 3 4 4 3 6 6 7 8 7 6 4 3 4 5 6 7 8 8 8 7 8 10 12 14 13 12
14 9 6 4 4 3 4 4 4 5 7 8 9 9 7 4 4 5 7 8 9 9 9 10 11 12 13 14 15 15 16 16 16
14 10 6 5 4 4 5 5 6 8 9 10 9 8 7 7 10 12 12 12 12 11 10 13 15 16 17 16 15 16 16 17 18
16 12 8 6 5 5 6 7 8 10 12 11 10 10 11 13 13 16 16 15 13 10 12 14 14 16 14 12 13 15 19 23 21
17 12 8 7 6 6 7 8 10 12 12 11 11 12 14 14 18 19 18 14 12 14 15 16 14 13 10 12 14 17 19 29 29
18 16 12 8 7 8 8 9 11 12 13 12 12 13 14 16 20 20 19 15 15 20 21 21 15 11 10 12 12 14 19 21 19
19 17 15 11 9 9 9 10 12 13 13 12 13 14 15 18 20 19 17 22 24 25 24 18 11 9 10 11 13 16 18 16 15
20 18 16 13 11 11 9 10 12 13 13 12 13 14 16 19 19 18 23 32 32 27 22 13 10 10 9 12 15 18 16 12 8
22 20 17 15 14 12 11 11 12 13 13 12 12 13 17 18 20 21 34 35 31 18 15 10 10 10 9 12 15 16 8 5 3
29 24 20 18 16 14 12 12 12 12 12 13 13 15 20 22 26 31 37 37 24 16 12 9 10 9 10 12 13 5 3 2 3
37 29 23 20 17 16 15 14 12 12 13 14 14 21 26 25 36 36 42 36 32 19 12 10 10 9 10 10 5 4 3 3 4
43 34 27 23 20 18 17 15 15 15 15 14 22 32 31 52 43 44 41 35 32 20 12 10 10 9 10 8 4 3 4 5 7
53 43 37 30 24 21 18 18 21 24 24 26 47 58 70 68 40 46 40 28 39 28 14 10 10 11 9 6 3 3 4 5 6
55 50 45 37 28 23 22 28 52 66 70 71 70 75 80 60 48 47 30 35 49 21 12 11 19 13 9 5 3 4 6 8 5
51 54 52 44 32 30 28 61 84 85 79 72 70 75 70 65 49 34 34 45 38 16 12 25 29 14 10 5 4 4 5 8 7
49 61 62 57 60 62 49 82 88 81 60 61 71 67 67 57 35 37 43 35 21 15 11 28 33 16 10 5 4 4 5 6 7
88 91 93 89 84 94 93 93 84 92 54 63 62 51 49 33 35 42 51 35 19 14 14 34 27 16 10 6 5 5 6 7 13
97 96 97 96 95 96 96 95 80 42 52 59 36 36 34 37 45 54 63 52 18 13 16 35 31 12 8 6 5 5 8 12 15
Wind_Speed
4 5 5 4 5 5 5 6 6 7 8 9 10 11 12 12 13 13 14 15 16 17 18 19 19 20 21 22 22 23 22 21 22
4 5 5 5 5 5 5 5 6 7 8 9 10 11 12 13 14 14 15 16 17 18 19 20 22 23 23 22 22 22 22 23 22
6 6 5 5 5 4 4 5 6 7 8 9 11 12 13 14 15 16 17 17 18 19 20 22 23 23 22 22 22 24 24 23 23
7 6 5 5 5 4 4 5 5 7 9 11 12 13 14 15 16 17 18 19 20 20 22 23 23 23 23 22 24 25 25 24 22
8 7 6 6 6 5 5 5 6 8 9 11 13 14 16 16 18 19 20 20 21 22 23 24 25 25 25 26 27 25 24 24 23
9 8 7 6 7 6 6 6 8 9 11 12 13 15 17 17 19 21 22 23 23 23 24 26 26 25 26 27 27 25 25 25 24
10 10 8 8 8 8 8 8 10 11 12 14 15 17 18 18 19 22 23 23 24 25 26 27 27 27 27 28 28 26 25 23 23
12 11 9 10 10 10 10 11 12 13 14 16 17 19 20 20 21 23 25 26 25 26 28 30 29 29 29 30 29 27 26 26 26
14 13 12 12 12 13 13 13 15 15 16 17 19 20 22 21 23 24 25 27 28 29 29 31 30 29 30 30 29 28 27 26 27
16 16 15 15 14 15 15 15 17 18 19 19 20 22 24 24 25 25 27 29 30 31 31 31 31 32 32 30 29 29 28 29 30
20 19 18 18 18 17 17 17 18 19 20 21 22 24 26 26 27 27 29 32 32 33 33 32 32 32 32 31 30 28 29 30 29
23 22 21 21 21 21 20 20 21 21 21 22 23 25 26 27 28 29 32 34 35 35 35 34 32 32 33 30 30 31 30 27 26
26 25 24 24 24 23 23 23 23 23 23 23 24 27 27 28 30 31 34 37 38 37 37 34 33 33 32 31 30 31 29 27 28
31 30 28 27 26 26 25 24 25 25 25 25 26 28 28 29 32 33 36 38 41 40 37 36 33 33 33 31 31 28 25 27 29
35 33 31 30 29 28 25 26 26 26 26 26 28 29 30 32 33 34 38 39 43 42 40 36 35 34 33 32 31 28 27 28 30
39 37 35 33 30 28 28 28 27 26 25 27 29 31 33 32 34 36 39 41 45 42 39 35 34 34 35 32 32 31 29 29 34
43 42 37 34 31 30 30 30 28 28 29 31 33 33 35 34 35 38 39 45 45 40 38 35 37 36 35 33 32 32 31 34 37
48 46 40 37 34 32 31 32 32 32 33 34 35 37 36 36 37 36 40 43 43 41 38 37 39 38 36 33 33 32 33 36 39
54 52 47 43 41 37 34 33 35 35 35 33 38 39 39 39 38 38 43 43 41 39 36 38 40 39 34 33 33 33 35 36 40
58 48 37 41 40 38 36 35 36 37 36 38 38 39 41 40 40 42 47 45 41 39 38 39 42 38 34 34 33 35 36 38 40
Wind_Direction
268 285 296 310 323 325 341 340 345 353 352 358 0 359 359 355 352 351 345 341 341 342 341 343 344 345 345 343 342 339 334 331 328
275 284 293 311 312 323 328 336 347 351 355 1 358 358 353 350 345 345 339 339 341 341 341 342 341 342 340 340 339 338 336 333 327
264 276 290 295 306 312 324 333 351 349 355 353 352 350 348 344 343 341 341 341 341 341 343 340 340 341 340 339 340 339 335 333 327
263 270 279 294 300 303 320 327 343 345 350 346 346 345 341 342 343 343 342 341 340 338 339 338 338 337 337 335 335 336 332 329 326
263 267 272 285 294 300 314 320 335 337 342 339 340 340 340 340 341 342 339 338 339 338 337 337 336 335 334 331 333 333 329 326 325
256 266 273 281 290 296 301 312 323 329 331 331 333 335 336 337 337 339 338 338 337 336 336 335 333 332 331 330 331 327 325 323 324
249 257 269 277 285 292 300 308 315 319 322 324 328 331 331 332 332 335 336 335 334 334 334 333 330 329 328 329 326 321 321 321 321
252 262 274 283 289 292 299 306 310 315 318 318 321 326 325 325 327 330 333 331 329 330 330 330 327 328 327 325 320 319 319 319 319
257 265 272 280 287 292 296 300 303 307 309 312 315 318 319 318 321 325 327 327 325 325 326 325 324 324 322 320 317 316 316 317 319
256 263 269 274 278 282 285 289 294 298 303 306 309 313 314 313 317 321 324 325 322 321 322 322 321 322 318 315 313 314 317 320 321
253 257 262 267 271 273 277 281 286 290 295 299 303 307 309 310 313 317 320 321 320 320 319 319 319 318 315 313 313 314 316 319 321
252 256 260 263 267 271 275 277 281 285 289 294 299 303 305 306 308 312 317 320 320 319 319 318 316 314 314 312 310 312 316 320 322
251 251 253 258 263 268 272 277 282 284 288 292 296 299 302 302 306 310 315 319 320 318 318 315 313 314 312 309 309 312 315 318 320
249 251 253 256 261 266 271 277 280 283 287 292 296 298 300 300 304 307 313 318 318 318 316 313 313 314 311 307 310 310 308 312 315
249 251 255 258 262 267 272 275 279 284 287 293 296 296 296 300 302 306 311 314 316 315 314 312 312 311 307 306 308 306 305 308 312
252 253 255 260 264 269 271 275 279 285 288 294 294 295 295 298 301 303 308 311 314 311 311 309 310 309 305 304 305 304 300 304 308
253 256 258 262 266 268 272 275 278 282 289 292 293 293 293 295 299 303 309 310 310 308 308 310 311 311 304 302 301 302 301 303 307
256 257 258 259 261 264 269 273 278 284 289 288 293 292 293 294 297 303 310 308 306 306 306 308 311 306 301 302 300 299 301 303 305
250 252 253 255 256 259 263 270 276 283 287 291 292 293 294 295 296 300 305 305 303 302 302 307 307 301 297 300 300 299 302 303 306
253 252 257 254 254 260 267 273 280 284 285 287 288 291 293 293 295 301 304 302 300 300 299 303 301 299 298 300 297 299 302 304 306